Weather Service Report


036 
ASUS41 KALY 062210
RWRALY

NEW YORK STATE HOURLY WEATHER ROUNDUP
NATIONAL WEATHER SERVICE ALBANY NY
500 PM EST TUE DEC 06 2016

NOTE: "FAIR" INDICATES FEW OR NO CLOUDS BELOW 12,000 FEET WITH NO
SIGNIFICANT WEATHER AND/OR NO OBSTRUCTIONS TO VISIBILITY.

NYZ032-033-038>043-046>054-057>066-NYZ062>081-082-084-062300-
EAST

  
CITY           SKY/WX    TMP DP  RH WIND       PRES   REMARKS
ALBANY         CLOUDY    36  30  79 NE7       29.98S WCI  30          
GLENS FALLS    MOCLDY    34  28  79 E5        29.99S WCI  30          
POUGHKEEPSIE   CLOUDY    41  29  62 CALM      29.97R                  
NEWBURGH       CLOUDY    41  34  75 VRB5      29.97R                  
MONTGOMERY     CLOUDY    41  32  70 NE3       29.96R                  
WHITE PLAINS   CLOUDY    42  30  62 E5        29.96R                  
ISLIP          CLOUDY    43  32  65 E9        29.96F                  
NEW YORK CITY  CLOUDY    47  31  53 E12       29.97R                  
CENTRAL PARK   CLOUDY    45  30  55 SE7       29.99R                  
$$

NYZ005>009-017-018-044>046-055-056-062300-
CENTRAL

  
CITY           SKY/WX    TMP DP  RH WIND       PRES   REMARKS
FULTON         MOCLDY    39  30  70 E5        29.89F                  
SYRACUSE       CLOUDY    39  31  72 E12       29.89S WCI  32          
ROME           MOCLDY    38  31  76 E8        29.93F WCI  32          
ELMIRA         LGT SNOW  37  30  75 SE3       29.89R                  
BINGHAMTON     CLOUDY    35  26  69 S10       29.87R WCI  27          
MONTICELLO     PTCLDY    36  28  75 SE5       29.94R WCI  32          
$$

NYZ026>034-041>043-087-062300-
NORTH

  
CITY           SKY/WX    TMP DP  RH WIND       PRES   REMARKS
WATERTOWN      CLOUDY    36  30  79 NE8       29.93S WCI  30          
FORT DRUM      NOT AVBL                                               
OGDENSBURG     FAIR      33  30  88 E5        29.97R WCI  29          
MASSENA        PTCLDY    32  26  78 NE14      30.01S WCI  22          
SARANAC LAKE   CLOUDY    27  24  89 NE8       29.92S WCI  19          
PLATTSBURGH    CLOUDY    33  27  78 CALM      30.04F                  
$$

NYZ001>004-010>016-019>021-085-062300-
WEST

  
CITY           SKY/WX    TMP DP  RH WIND       PRES   REMARKS
NIAGARA FALLS  LGT RAIN  38  32  79 E9        29.81S WCI  31          
BUFFALO        LGT RAIN  39  31  72 E12       29.81S WCI  32          
DUNKIRK        LGT RAIN  37  33  85 E8        29.77F WCI  31          
JAMESTOWN      CLOUDY    34  28  80 S10       29.71S WCI  26          
WELLSVILLE     FRZ RAIN  34  30  85 SE14G22   29.78F FOG     WCI  25  
ROCHESTER      CLOUDY    40  30  67 SE8       29.86R WCI  34          
PENN YAN       CLOUDY    39  28  64 S9        29.87R WCI  33          
$$

             KEY
       WCI = WIND CHILL INDEX
       VSB = VISIBILITY
       HX  = HEAT INDEX
$$
  

Return to Home page


Western Regional Climate Center, wrcc@dri.edu